| time (UTC) | temp F | wind direction | speed MPH | gust MPH | rain 1hr in | rain 24hr in | rain mn in | humidity % | barometer mb |
| 20260505192218 | 57 | 158 | 2.0 | 8.0 | 0.00 | 0.00 | 0.00 | 42 | 1012.3 |
| 20260505191238 | 55 | 203 | 7.0 | 15.0 | 0.00 | 0.00 | 0.00 | 48 | 1012.2 |
| 20260505190218 | 54 | 135 | 4.0 | 6.0 | 0.00 | 0.00 | 0.00 | 48 | 1012.3 |
| 20260505185218 | 54 | 135 | 3.0 | 10.0 | 0.00 | 0.00 | 0.00 | 45 | 1012.1 |
| 20260505184217 | 54 | 203 | 6.0 | 10.0 | 0.00 | 0.00 | 0.00 | 42 | 1011.9 |
| 20260505183218 | 55 | 203 | 10.0 | 13.0 | 0.00 | 0.00 | 0.00 | 38 | 1012.1 |
| 20260505182218 | 55 | 248 | 5.0 | 9.0 | 0.00 | 0.00 | 0.00 | 40 | 1012.5 |
| 20260505181217 | 54 | 203 | 6.0 | 11.0 | 0.00 | 0.00 | 0.00 | 43 | 1012.1 |
| 20260505180218 | 53 | 203 | 5.0 | 8.0 | 0.00 | 0.00 | 0.00 | 39 | 1011.9 |
| 20260505175218 | 53 | 180 | 5.0 | 10.0 | 0.00 | 0.00 | 0.00 | 43 | 1011.9 |
| 20260505174218 | 53 | 180 | 8.0 | 13.0 | 0.00 | 0.00 | 0.00 | 41 | 1011.9 |
| 20260505173258 | 53 | 203 | 6.0 | 11.0 | 0.00 | 0.00 | 0.00 | 42 | 1012.4 |
| 20260505172218 | 52 | 225 | 6.0 | 10.0 | 0.00 | 0.00 | 0.00 | 46 | 1012.0 |
| 20260505171238 | 51 | 293 | 2.0 | 5.0 | 0.00 | 0.00 | 0.00 | 46 | 1011.4 |
| 20260505170258 | 50 | 203 | 8.0 | 11.0 | 0.00 | 0.00 | 0.00 | 45 | 1011.6 |
| 20260505165218 | 49 | 203 | 8.0 | 15.0 | 0.00 | 0.00 | 0.00 | 49 | 1011.5 |
| 20260505164238 | 48 | 180 | 7.0 | 9.0 | 0.00 | 0.00 | 0.00 | 49 | 1011.4 |
| 20260505163218 | 48 | 203 | 10.0 | 12.0 | 0.00 | 0.00 | 0.00 | 50 | 1011.9 |
| 20260505162217 | 48 | 203 | 9.0 | 12.0 | 0.00 | 0.00 | 0.00 | 50 | 1011.8 |
| 20260505161217 | 48 | 225 | 7.0 | 10.0 | 0.00 | 0.00 | 0.00 | 51 | 1011.8 |
| 20260505160237 | 48 | 203 | 8.0 | 10.0 | 0.00 | 0.00 | 0.00 | 50 | 1011.6 |
| 20260505153217 | 48 | 203 | 8.0 | 15.0 | 0.00 | 0.00 | 0.00 | 51 | 1011.5 |
| 20260505152238 | 48 | 180 | 8.0 | 12.0 | 0.00 | 0.00 | 0.00 | 53 | 1011.5 |
| 20260505151218 | 48 | 203 | 4.0 | 6.0 | 0.00 | 0.00 | 0.00 | 58 | 1011.6 |
| 20260505150238 | 48 | 203 | 7.0 | 9.0 | 0.00 | 0.00 | 0.00 | 54 | 1011.6 |
| 20260505140217 | 45 | 203 | 8.0 | 12.0 | 0.00 | 0.00 | 0.00 | 64 | 1011.2 |